Regional Weather Roundup
Issued by NWS

Home | Current Version | Previous Version | Text Only | Print | Product List | Glossary On
Versions: 1 2 3 4 5 6 7 8 9 10 11 12 13 14 15 16 17 18 19 20 21 22 23 24 25 26 27 28 29 30 31 32 33 34 35 36 37 38 39 40 41 42 43 44 45 46 47 48 49 50
000
ASUS44 KBMX 231510
RWRAL

ALABAMA REGIONAL WEATHER ROUNDUP
NATIONAL WEATHER SERVICE BIRMINGHAM AL
1000 AM CDT SAT AUG 23 2014

NOTE: "FAIR" INDICATES FEW OR NO CLOUDS BELOW 12,000 FEET
WITH NO SIGNIFICANT WEATHER AND/OR OBSTRUCTIONS TO VISIBILITY.

THE REMARK "TC" DENOTES TEMPERATURE IN DEGREES CELSIUS.

ALZ001>011-014-016>018-020-231600-
NORTH ALABAMA

CITY           SKY/WX    TMP DP  RH WIND       PRES   REMARKS
MUSCLE SHOALS  SUNNY     85  75  72 NW6       30.05F HX  93
HUNTSVILLE     MOSUNNY   88  74  63 N6        30.05R HX  96
DECATUR        SUNNY     87  75  67 W7        30.05S HX  96
HALEYVILLE     FAIR      85  74  69 NW7       30.09S HX  92
GADSDEN        SUNNY     88  72  58 W6        30.04S HX  94
$$

ALZ012-013-022-023-030>036-040>044-231600-
WEST CENTRAL ALABAMA

CITY           SKY/WX    TMP DP  RH WIND       PRES   REMARKS
TUSCALOOSA     SUNNY     89  71  55 NW10      30.05R HX  95
$$

ALZ015-024>027-033>036-040>044-231600-
CENTRAL ALABAMA

CITY           SKY/WX    TMP DP  RH WIND       PRES   REMARKS
BIRMINGHAM     SUNNY     86  72  62 W5        30.07F HX  92
MONTGOMERY     SUNNY     92  73  53 N6        30.02S HX 100
SHELBY CO ARPT SUNNY     87  73  62 N8        30.05S HX  94
MAXWELL AFB    SUNNY     90  74  58 N6        30.02S HX  98
GREENVILLE     FAIR      90  73  57 N5        30.03S HX  98
$$

ALZ019-021-028-029-037-038-045>048-231600-
EAST CENTRAL ALABAMA

CITY           SKY/WX    TMP DP  RH WIND       PRES   REMARKS
ANNISTON       SUNNY     84  74  71 S3        30.04F HX  91
ALEXANDER CITY SUNNY     91  69  48 N10       30.04S HX  95
AUBURN         SUNNY     88  72  58 N6        30.08S HX  94
$$

ALZ051>064-231600-
SOUTHWEST ALABAMA

CITY           SKY/WX    TMP DP  RH WIND       PRES   REMARKS
MOBILE         MOSUNNY   90  73  57 N8        30.04S HX  98
BROOKLEY FIELD SUNNY     90  75  61 N9        30.04S HX 100
EVERGREEN      SUNNY     92  74  55 VRB6      30.03F HX 101
$$

ALZ049-050-065>069-231600-
SOUTHEAST ALABAMA

CITY           SKY/WX    TMP DP  RH WIND       PRES   REMARKS
DOTHAN         SUNNY     91  73  55 VRB5      30.05S HX  99
OZARK          SUNNY     90  74  59 W5        30.01F HX  99
TROY           SUNNY     91  73  55 N6        30.03S HX  99
EUFAULA        FAIR      91  74  57 NW3       30.00S HX 100
$$


USA.gov is the U.S. government's official web portal to all federal, state and local government web resources and services.